Regional Weather Roundup
Issued by NWS

Home | Current Version | Previous Version | Text Only | Print | Product List | Glossary On
Versions: 1 2 3 4 5 6 7 8 9 10 11 12 13 14 15 16 17 18 19 20 21 22 23 24 25 26 27 28 29 30 31 32 33 34 35 36 37 38 39 40 41 42 43 44 45 46 47 48 49 50
000
ASUS43 KTOP 222008
RWRKS

WEATHER ROUNDUP FOR KANSAS
NATIONAL WEATHER SERVICE GOODLAND KS
300 PM CDT FRI MAY 22 2015

NOTE:  "FAIR" INDICATES FEW OR NO CLOUDS BELOW 12,000 FEET WITH NO
SIGNIFICANT WEATHER AND/OR OBSTRUCTIONS TO VISIBILITY.

KSZ001>006-013>018-027>032-041>047-222100-
NORTHWEST KANSAS

CITY           SKY/WX    TMP DP  RH WIND       PRES   REMARKS
GOODLAND       CLOUDY    51  50  96 SE18      30.04F
HAYS           CLOUDY    55  45  67 SE16      30.13S
HILL CITY      CLOUDY    54  49  83 SE13      30.13F
RUSSELL        CLOUDY    56  51  84 SE17      30.13F
$$

KSZ061>065-074>080-084>089-222100-
SOUTHWEST KANSAS

CITY           SKY/WX    TMP DP  RH WIND       PRES   REMARKS
DODGE CITY     CLOUDY    58  51  78 S17G25    30.10F
ELKHART          N/A     63  50  63 S12         N/A
GARDEN CITY    CLOUDY    53  51  93 S18       30.06F
GREAT BEND     CLOUDY    57  50  77 S15       30.14F
LIBERAL        CLOUDY    59  54  82 SE17      30.08F
PRATT          CLOUDY    55  52  88 SE10      30.16F FOG
$$

KSZ066>073-081>083-090>101-222100-
SOUTHEAST KANSAS

CITY           SKY/WX    TMP DP  RH WIND       PRES   REMARKS
CHANUTE        CLOUDY    63  52  67 SE10      30.22S
COFFEYVILLE    CLOUDY    64  53  67 SE9       30.20F
HUTCHINSON     CLOUDY    57  54  89 S12       30.18F FOG
MEDICINE LODGE   N/A     56  55  97 SE9G18    30.14F
NEWTON         CLOUDY    57  52  82 S9        30.21S
PARSONS        CLOUDY    63  52  67 SE6       30.22F
WICHITA INTL   CLOUDY    59  55  87 SE10      30.17F
WICHITA JABRA  CLOUDY    58  54  86 SE10      30.18F
WICHITA MCCONL CLOUDY    59  55  88 SE13      30.18F
WINFIELD       CLOUDY    60  55  83 S9        30.19F
$$

KSZ007>012-019>026-033>040-048>060-102>105-222100-
NORTHEAST KANSAS

CITY           SKY/WX    TMP DP  RH WIND       PRES   REMARKS
CONCORDIA      CLOUDY    59  48  67 SE13      30.19F
EMPORIA        CLOUDY    61  49  64 S14       30.21F
LAWRENCE       CLOUDY    63  46  54 SE8       30.24S
MANHATTAN      CLOUDY    64  50  60 SE8       30.21F
MARYSVILLE     CLOUDY    61  46  59 SE5       30.22F
OLATHE IND     CLOUDY    63  46  54 SE9       30.24S
OLATHE EXE     CLOUDY    62  47  57 SE9       30.22F
SALINA         CLOUDY    60  52  74 SE13      30.19F
TOPEKA BILLARD CLOUDY    64  48  56 SE10      30.23S
TOPEKA FORBES  CLOUDY    63  45  51 SE10      30.22F
$$


USA.gov is the U.S. government's official web portal to all federal, state and local government web resources and services.